Regional Weather Roundup
Issued by NWS

Home | Current Version | Previous Version | Text Only | Print | Product List | Glossary On
Versions: 1 2 3 4 5 6 7 8 9 10 11 12 13 14 15 16 17 18 19 20 21 22 23 24 25 26 27 28 29 30 31 32 33 34 35 36 37 38 39 40 41 42 43 44 45 46 47 48 49 50
000
ASUS43 KDTX 271610
RWRMI
MICHIGAN HOURLY REGIONAL WEATHER ROUNDUP
NATIONAL WEATHER SERVICE DETROIT/PONTIAC MI
1100 AM EST FRI FEB 27 2015

NOTE: "FAIR" INDICATES FEW OR NO CLOUDS BELOW 12,000 FEET WITH NO
SIGNIFICANT WEATHER AND/OR OBSTRUCTION TO VISIBILITY.

MIZ047>049-052>055-059>063-066>070-074>076-081>083-271700-
SOUTHEAST LOWER MICHIGAN

CITY           SKY/WX    TMP DP  RH WIND       PRES   REMARKS
ADRIAN         SUNNY      5  -6  60 CALM      30.55R
ALMA           MOSUNNY    8  -6  54 S7        30.53S WCI  -4
ANN ARBOR      SUNNY      7  -2  66 SW5       30.53R WCI  -2
BAD AXE        SUNNY      6  -5  61 W10       30.51R WCI  -9
CARO           SUNNY      8  -5  55 W8        30.52S WCI  -5
DETROIT CITY   PTSUNNY   11   1  64 S6        30.54R WCI   1
DETROIT        SUNNY     11  -1  58 VRB3      30.55R
FLINT          SUNNY      9  -3  58 CALM      30.53R
GROSSE ILE     SUNNY      9   5  85 SW5       30.54R WCI   0
HILLSDALE      SUNNY      9  -4  57 NW3       30.49R
HOWELL         SUNNY      9  -4  56 CALM      30.50S

CITY           SKY/WX    TMP DP  RH WIND       PRES   REMARKS
JACKSON        SUNNY      8  -6  52 SW6       30.52R WCI  -2
LAMBERTVILLE   SUNNY     10  -2  56 CALM      30.57R
LANSING        SUNNY     10  -7  46 CALM      30.53R
LAPEER         FAIR       8  -4  58 CALM      30.52R
MASON          SUNNY      7  -6  56 CALM      30.52R
MONROE         SUNNY      7  -2  66 CALM      30.54R
MT. CLEMENS    MOSUNNY   10   0  63 S5        30.52R WCI   2
PONTIAC        SUNNY     10   1  67 CALM      30.49R
PORT HOPE        N/A      6  -6  57 VRB6      30.50R WCI  -4
PORT HURON     SUNNY      9  -2  61 W5        30.54R WCI   0
TRI CITIES     SUNNY      7  -6  55 SW8       30.53R WCI  -6
TROY           SUNNY     13   0  55 CALM      30.54S
SAGINAW HB     SUNNY      9  -4  56 S8        30.54R WCI  -4
$$
MIZ043>046-050>051-056>058-064>065-071>073-077>080-271700-
SOUTHWEST LOWER MICHIGAN

CITY           SKY/WX    TMP DP  RH WIND       PRES   REMARKS
BATTLE CREEK   SUNNY      8  -7  50 SW5       30.53R WCI   0
BENTON HARBOR  CLOUDY    10  -3  55 S10       30.57R WCI  -4
BIG RAPIDS     PTSUNNY    3  -3  76 CALM      30.49R
COLDWATER      SUNNY      8  -6  51 CALM      30.53R
FREMONT        PTSUNNY    9  -3  57 S7        30.52R HAZE    WCI  -2
HOLLAND        SUNNY     12  -3  51 S9        30.55R WCI   0
GRAND RAPIDS   MOSUNNY    7  -8  50 S10       30.54R WCI  -8
IONIA          CLOUDY     9  -5  53 SW5       30.52S WCI   0
KALAMAZOO      SUNNY      9  -7  48 S5        30.54R WCI   1
LUDINGTON      SUNNY     16   6  64 W6        30.52R WCI   7
MARSHALL       SUNNY      8  -7  50 W3        30.52S
MOUNT PLEASANT MOSUNNY   10  -5  51 SW7       30.51R WCI  -1
MUSKEGON       LGT SNOW  14   8  77 S15       30.55R VSB 3/4 WCI  -1
SOUTH HAVEN    PTSUNNY   15  -1  49 S5        30.56R WCI   7
$$
MIZ016>042-271700-
NORTHERN LOWER MICHIGAN

CITY           SKY/WX    TMP DP  RH WIND       PRES   REMARKS
ALPENA         MIX PCPN  10  -3  55 W9        30.46S WCI  -3
BEAVER ISLAND  LGT SNOW  10   4  77 W10       30.45R WCI  -4
BELLAIRE       SUNNY      8  -2  63 S6        30.49S WCI  -2
CADILLAC       SUNNY      7  -1  69 SW7       30.41S WCI  -4
CHARLEVOIX     SUNNY     10   2  69 W14       30.48R WCI  -6
FRANKFORT      CLOUDY    14   4  64 W10G16    30.49R WCI   2
GAYLORD        MOSUNNY    7  -1  70 W12       30.39R WCI  -8
GRAYLING       MOSUNNY   10  -1  59 W12G17    30.42F WCI  -4
HARBOR SPRINGS SUNNY      6  -2  67 SW5       30.45R WCI  -3
HOUGHTON LAKE  SUNNY      4  -6  63 W5        30.45R WCI  -5
MANISTEE       CLOUDY     7   0  72 CALM      30.51R
OSCODA         SUNNY     10  -1  60 W13       30.48S WCI  -5
PELLSTON       MOSUNNY    9  -1  64 W13G20    30.45R WCI  -7
ROGERS CITY    SUNNY     11   1  66 W10G22    30.45S WCI  -3
TRAVERSE CITY  PTSUNNY   10   1  67 SW8       30.47S WCI  -2
$$
MIZ007>008-015-271700-
EASTERN UPPER MICHIGAN

CITY           SKY/WX    TMP DP  RH WIND       PRES   REMARKS
KINROSS        PTSUNNY   10   5  79 SW6       30.41R VSB 1/2 WCI   1
MACKINAC ISLAN SUNNY      4  -3  73 W9        30.44R WCI -10
NEWBERRY       SUNNY      6  -1  71 SW6       30.40S WCI  -4
S. S. MARIE    SUNNY      8  -2  63 W7        30.41S WCI  -3
MUNISING         N/A      7  -5  57 E5        30.44R WCI  -2
$$
MIZ004>006-011>014-085-271700-
CENTRAL UPPER MICHIGAN

CITY           SKY/WX    TMP DP  RH WIND       PRES   REMARKS
MANISTIQUE     SUNNY      9  -4  56 W6        30.44R WCI  -1
ESCANABA       SUNNY      7  -8  51 NW9       30.47S WCI  -7
MENOMINEE      SUNNY      9  -6  52 W9        30.47F WCI  -5
SAWYER-GWINN   SUNNY      5  -6  61 W8        30.36R WCI  -8
$$
MIZ001>003-009>011-084-271700-
WESTERN UPPER MICHIGAN

CITY           SKY/WX    TMP DP  RH WIND       PRES   REMARKS
IRON MOUNTAIN  SUNNY      6  -7  54 W8        30.39F WCI  -7
HOUGHTON       SUNNY      6  -2  69 W21       30.36R WCI -14
COPPER HARBOR    N/A     11  -1  58 N16G25    30.38R WCI  -6
IRONWOOD       SUNNY      1  -6  71 W14       30.38S WCI -17
$$

ABBREVIATIONS USED IN REMARKS
   TC - TEMPERATURE IN CELSIUS
  WCI - WIND CHILL INDEX
   HX - HEAT INDEX
  VSB - VISIBILITY



USA.gov is the U.S. government's official web portal to all federal, state and local government web resources and services.